EW6511 Weather Reports


Display with metric or nautical units.
time (UTC)temp
F
wind
direction
speed
MPH
gust
MPH
rain 1hr
in
rain 24hr
in
rain mn
in
humidity
%
barometer
mb
20260508171252 63 117 7.0 10.0 0.00 0.00 0.00 48 1015.4
20260508170252 63 128 7.0 9.0 0.00 0.00 0.00 47 1015.3
20260508165252 63 102 8.0 11.0 0.00 0.00 0.00 48 1015.2
20260508164251 63 88 8.0 12.0 0.00 0.00 0.00 47 1015.0
20260508163252 64 92 12.0 15.0 0.00 0.00 0.00 46 1015.0
20260508162253 65 99 12.0 15.0 0.00 0.00 0.00 46 1014.9
20260508160252 68 64 1.0 7.0 0.00 0.00 0.00 41 1014.5
20260508154252 67 99 4.0 9.0 0.00 0.00 0.00 35 1014.6
20260508153252 68 30 1.0 4.0 0.00 0.00 0.00 36 1014.7
20260508151251 66 103 5.0 7.0 0.00 0.00 0.00 40 1014.7
20260508150250 66 111 6.0 9.0 0.00 0.00 0.00 40 1014.8
20260508145252 67 105 7.0 10.0 0.00 0.00 0.00 39 1014.9
20260508144251 66 98 6.0 10.0 0.00 0.00 0.00 38 1015.0
20260508143250 67 122 4.0 7.0 0.00 0.00 0.00 38 1015.2
20260508140251 67 90 4.0 9.0 0.00 0.00 0.00 41 1015.4
20260508135250 67 77 2.0 7.0 0.00 0.00 0.00 44 1015.4
20260508134248 67 328 5.0 9.0 0.00 0.00 0.00 41 1015.5
20260508133248 67 313 5.0 9.0 0.00 0.00 0.00 42 1015.5
20260508130247 66 257 4.0 9.0 0.00 0.00 0.00 43 1015.6
20260508125247 65 300 2.0 4.0 0.00 0.00 0.00 41 1015.8
20260508124248 65 312 5.0 11.0 0.00 0.00 0.00 43 1016.0
20260508123247 65 280 4.0 11.0 0.00 0.00 0.00 43 1016.1
20260508122250 65 263 4.0 8.0 0.00 0.00 0.00 48 1016.1
20260508120249 64 321 8.0 12.0 0.00 0.00 0.00 46 1016.3
20260508114249 64 287 6.0 11.0 0.00 0.00 0.00 49 1016.3
20260508113247 64 309 5.0 8.0 0.00 0.00 0.00 53 1016.3
20260508112248 63 290 5.0 9.0 0.00 0.00 0.00 48 1016.4
20260508111249 63 286 7.0 12.0 0.00 0.00 0.00 48 1016.5
20260508110249 63 290 4.0 8.0 0.00 0.00 0.00 50 1016.5
20260508105242 62 295 4.0 8.0 0.00 0.00 0.00 51 1016.6
20260508104242 61 281 4.0 9.0 0.00 0.00 0.00 54 1016.7
20260508102240 61 315 3.0 8.0 0.00 0.00 0.00 56 1016.8
20260508101241 61 309 3.0 7.0 0.00 0.00 0.00 57 1016.9
20260508100239 60 196 0.0 3.0 0.00 0.00 0.00 57 1016.9
20260508095239 60 277 2.0 6.0 0.00 0.00 0.00 58 1016.9
20260508094239 59 279 3.0 8.0 0.00 0.00 0.00 58 1017.0
20260508093240 59 261 3.0 8.0 0.00 0.00 0.00 60 1017.1
20260508091233 58 290 3.0 7.0 0.00 0.00 0.00 60 1017.1
20260508090233 58 303 2.0 8.0 0.00 0.00 0.00 60 1017.1
20260508085234 57 304 3.0 8.0 0.00 0.00 0.00 60 1017.1
20260508084233 58 259 1.0 3.0 0.00 0.00 0.00 60 1017.1
20260508083233 57 317 1.0 5.0 0.00 0.00 0.00 61 1017.2
20260508075228 54 300 2.0 5.0 0.00 0.00 0.00 65 1017.1
20260508073227 52 289 2.0 4.0 0.00 0.00 0.00 65 1017.1
20260508072227 52 288 1.0 4.0 0.00 0.00 0.00 64 1017.1
20260508071227 54 204 0.0 2.0 0.00 0.00 0.00 63 1017.1
20260508070228 52 205 0.0 1.0 0.00 0.00 0.00 67 1017.0
20260508065229 51 205 0.0 2.0 0.00 0.00 0.00 70 1016.9
20260508064227 49 205 0.0 1.0 0.00 0.00 0.00 78 1016.9
20260508063229 47 205 0.0 0.0 0.00 0.00 0.00 81 1016.9
20260508061217 46 202 0.0 0.0 0.00 0.00 0.00 79 1016.9
20260508060217 45 201 0.0 3.0 0.00 0.00 0.00 79 1016.8
20260508054219 45 201 1.0 3.0 0.00 0.00 0.00 79 1016.7
20260508053213 45 201 1.0 3.0 0.00 0.00 0.00 79 1016.8
20260508052211 45 229 0.0 1.0 0.00 0.00 0.00 79 1016.8
20260508051211 44 227 1.0 2.0 0.00 0.00 0.00 80 1016.7
20260508050212 44 227 2.0 3.0 0.00 0.00 0.00 79 1016.6
20260508045212 43 227 1.0 3.0 0.00 0.00 0.00 79 1016.7
20260508044210 0 0.0 0.0 0.00 0.00 0.00 1016.6
20260508043206 0 0.0 0.0 0.00 0.00 0.00 1016.5
20260508042116 0 0.0 0.0 0.00 0.00 0.00 1016.4
20260508041112 0 0.0 0.0 0.00 0.00 0.00 1016.4
20260508035106 0 0.0 0.0 0.00 0.00 0.00 1016.5
20260508034014 0 0.0 0.0 0.00 0.00 0.00 1016.3
20260508033013 0 0.0 0.0 0.00 0.00 0.00 1016.4
20260508031012 0 0.0 0.0 0.00 0.00 0.00 1016.3
20260508030004 0 0.0 0.0 0.00 0.00 0.00 1016.4
20260508023910 0 0.0 0.0 0.00 0.00 0.00 1016.4
20260508022816 0 0.0 0.0 0.00 0.00 0.00 1016.3
20260508021800 0 0.0 0.0 0.00 0.00 0.00 1016.2
20260508020706 0 0.0 0.0 0.00 0.00 0.00 1016.2
20260508015614 0 0.0 0.0 0.00 0.00 0.00 1016.0
20260508014613 44 0.0 0.0 0.00 0.00 0.00 72 1015.8
20260508012518 44 119 0.0 0.0 0.00 0.00 0.00 72 1015.8
20260508011519 45 119 1.0 2.0 0.00 0.00 0.00 72 1015.8
20260508010519 45 119 1.0 2.0 0.00 0.00 0.00 71 1016.0
20260508005518 46 119 0.0 2.0 0.00 0.00 0.00 71 1016.0
20260508004521 46 119 2.0 3.0 0.00 0.00 0.00 72 1016.1
20260508003521 46 119 3.0 4.0 0.00 0.01 0.00 72 1016.1
20260508002521 0 0.0 0.0 0.00 0.01 0.00 1016.2
20260508000458 45 65 0.0 2.0 0.00 0.01 0.00 70 1016.3
20260507235437 45 65 0.0 2.0 0.00 0.02 0.00 70 1016.2
20260507234424 46 65 0.0 2.0 0.00 0.02 0.00 70 1016.2
20260507233424 46 65 0.0 0.0 0.00 0.02 0.00 70 1016.3
20260507232423 46 65 0.0 0.0 0.00 0.03 0.00 70 1016.4
20260507231422 46 65 1.0 3.0 0.00 0.03 0.00 69 1016.4
20260507230423 47 65 1.0 3.0 0.00 0.04 0.00 69 1016.4
20260507225422 47 65 1.0 2.0 0.00 0.04 0.00 69 1016.5
20260507224422 47 65 0.0 2.0 0.00 0.04 0.00 68 1016.5
20260507223424 48 65 1.0 2.0 0.00 0.05 0.00 67 1016.4
20260507222423 49 65 2.0 2.0 0.00 0.05 0.00 68 1016.4
20260507221416 48 65 2.0 3.0 0.00 0.05 0.00 69 1016.5
20260507220418 48 65 2.0 3.0 0.00 0.05 0.00 68 1016.5
20260507215416 50 65 2.0 6.0 0.00 0.05 0.05 66 1016.4
20260507214416 49 96 2.0 3.0 0.00 0.05 0.05 68 1016.5
20260507213416 49 96 3.0 6.0 0.00 0.05 0.05 67 1016.6
20260507211416 50 65 3.0 5.0 0.00 0.05 0.05 66 1016.5
20260507210416 50 70 3.0 5.0 0.00 0.05 0.05 66 1016.5
20260507205418 51 71 3.0 7.0 0.00 0.05 0.05 66 1016.5
20260507203410 51 56 4.0 6.0 0.00 0.05 0.05 66 1016.4
20260507202411 51 59 4.0 9.0 0.00 0.05 0.05 67 1016.2
20260507201412 51 46 4.0 6.0 0.00 0.05 0.05 67 1016.2
20260507200412 51 64 4.0 6.0 0.00 0.05 0.05 67 1016.2
20260507195410 51 36 4.0 5.0 0.00 0.05 0.05 67 1016.2
20260507194411 52 62 4.0 5.0 0.00 0.05 0.05 66 1016.0
20260507193409 52 59 3.0 6.0 0.00 0.05 0.05 66 1015.8
20260507192411 53 62 4.0 5.0 0.00 0.05 0.05 66 1015.7
20260507191407 53 63 4.0 5.0 0.00 0.05 0.05 65 1015.8
20260507185410 54 72 3.0 5.0 0.00 0.05 0.05 64 1015.6
20260507184408 55 59 3.0 5.0 0.00 0.05 0.05 64 1015.5
20260507183410 55 21 3.0 6.0 0.00 0.05 0.05 63 1015.5
20260507182409 55 43 3.0 5.0 0.00 0.05 0.05 63 1015.5
20260507180407 56 37 4.0 6.0 0.00 0.05 0.05 59 1015.4
20260507175403 56 18 5.0 8.0 0.00 0.05 0.05 59 1015.3
20260507173404 57 13 5.0 9.0 0.00 0.05 0.05 58 1015.2